Tracking 19212 objects as of 17-Jul-2018
HD Live streaming from Space Station
objects crossing your sky now

FENGYUN 1C DEB

Track FENGYUN 1C DEB now!
10-day predictions


NORAD ID: 32363
Int'l Code: 1999-025CZG
Perigee: 498.1 km
Apogee: 815.1 km
Inclination: 98.4 °
Period: 97.7 minutes
Semi major axis: 7027 km
RCS: 0.013 m2 (small)
Launch date: May 10, 1999
Source: People's Republic of China (PRC)
Launch site: Taiyaun Space Center, China (TSC)

Note: This is SATELLITE DEBRIS
aabbcc
Your satellite tracking list
Your tracking list is empty




NASA's NSSDC Master Catalog

Two Line Element Set (TLE):
1 32363U 99025CZG 18198.17171379  .00000804  00000-0  89887-4 0  9991
2 32363  98.3565 327.5591 0225549 257.1203 100.4724 14.73639008575617
Source of the keplerian elements: AFSPC